Gilles D'haenens

Gilles D'haenens

Statistiques 2026

  • Courses courues : 157
  • Nb de victoires : 12
  • Nb de places : 51
  • Écart gagnant : 13
  • Réussite à la gagne : 8%
  • Réussite à la place : 32%
Musique : 2a Da 2a Da 2a 3a 4a 2a 3a 7a Da 4a 6a 1a Da 0a Da Da
DateRangCatégorieAlloc.Dist.HippodromeChevalRed. KmSpé.
16/02/26 3 Trot 38 000€ 2 700m Vincennes Nymphadora Tonks 1'17"6 Attelé
16/02/26 2 Trot 18 000€ 2 700m Vincennes Il Mio 1'14"4 Attelé
09/02/26 D Trot 16 500€ 2 725m Graignes Nymphadora Tonks Attelé
06/02/26 7 Trot 18 000€ 2 700m Vincennes Massilio Blond 1'15"8 Attelé
04/02/26 9 Trot 21 000€ 2 850m Laval Kristal du Trio 1'16"1 Attelé
08/01/26 2 Trot 15 500€ 2 900m Argentan Kid Smile 1'18"8 Attelé
05/01/26 2 Trot 17 500€ 3 025m Chateaubriant Krono du Trio 1'18"4 Attelé
27/12/25 1 Trot 41 000€ 2 850m Vincennes Jahia du Trio 1'14"7 Attelé lire

Longtemps sur une troisième ligne, a su se montrer la plus forte pour finir.

22/12/25 D Trot 23 000€ 2 750m Cabourg Kristal du Trio Attelé
21/12/25 2 Trot 20 000€ 2 825m Pontchateau Jamaique Dairpet 1'14"8 Attelé
15/12/25 1 Trot 27 000€ 2 825m Le Croise Laroche Jahia du Trio 1'13"5 Attelé
27/11/25 1 Trot 23 000€ 2 850m Mauquenchy Indy Piquenard 1'16"2 Attelé
27/11/25 3 Trot 30 000€ 2 875m Mauquenchy Geronimo Matica 1'14"2 Attelé
25/11/25 5 Trot 37 000€ 2 100m Vincennes Jamaique Dairpet 1'12"4 Attelé
24/11/25 1 Trot 21 000€ 2 825m Le Croise Laroche Krono du Trio 1'17"8 Attelé
23/11/25 D Trot 18 000€ 2 550m Reims Messaline Attelé
23/11/25 D Trot 17 500€ 2 500m Reims Joestar des Noes Attelé
16/11/25 0 Trot 15 000€ 2 825m Chartres Kristal du Trio Attelé
15/11/25 2 Trot 22 000€ 2 850m Mauquenchy Jahia du Trio 1'15"6 Attelé
12/11/25 2 Trot 12 000€ 2 450m Caen Le Regent 1'15"8 Attelé
10/11/25 9 Trot 37 000€ 2 700m Vincennes Jekill Rocq 1'15"1 Attelé
02/11/25 4 Trot 13 500€ 2 800m Strasbourg Kalie Piquenard 1'16"8 Attelé
01/11/25 4 Trot 22 000€ 2 725m Lisieux Ivo Sived 1'16"3 Attelé
27/10/25 2 Trot 12 000€ 2 450m Caen Le Regent 1'17"2 Attelé
26/10/25 D Trot 13 500€ 2 750m La Capelle Lady du Campus Attelé
26/10/25 D Trot 15 500€ 2 700m La Capelle Keops Juth Attelé
26/10/25 1 Trot 15 500€ 2 700m La Capelle Kannabis Jeloca 1'15"2 Attelé
26/10/25 2 Trot 26 000€ 2 700m La Capelle Geronimo Matica 1'14"4 Attelé
26/10/25 3 Trot 13 500€ 2 750m La Capelle Le Doctor 1'18"3 Attelé
23/10/25 3 Trot 23 000€ 2 725m Cabourg Joyeux Nonna 1'16"0 Attelé
19/10/25 4 Trot 21 000€ 2 500m Reims Jurassic 1'13"3 Attelé
16/10/25 1 Trot 18 000€ 2 150m Enghien Soisy Il Magnifico 1'13"4 Attelé
12/10/25 6 Trot 14 500€ 3 175m Saint Omer Joeystar de Niro 1'18"5 Attelé
12/10/25 3 Trot 16 500€ 3 175m Saint Omer Keight Bless 1'17"2 Attelé
07/10/25 5 Trot 18 000€ 2 100m Vincennes Invictus Madrik 1'13"5 Attelé
06/10/25 9 Trot 12 000€ 2 450m Caen Le Regent 1'17"1 Attelé
05/10/25 D Trot 10 000€ 2 675m Alencon Hyperion du Bocage Attelé
29/09/25 2 Trot 19 000€ 2 700m Le Croise Laroche Jina d'Erpion 1'13"8 Attelé
24/09/25 1 Trot 21 000€ 2 750m Lisieux Jamaique Dairpet 1'16"3 Attelé
21/09/25 1 Trot 14 500€ 2 800m Rambouillet Kaid des Bosc Attelé
17/09/25 7 Trot 21 000€ 2 200m Caen Kiss Me Dutollem 1'13"5 Attelé
15/09/25 6 Trot 15 500€ 2 700m Le Croise Laroche Jiosco des Chasses 1'16"3 Attelé
13/09/25 0 Trot 15 500€ 2 750m Lisieux Jade de Touchyvon Attelé
08/09/25 D Trot 17 500€ 2 700m Le Croise Laroche Jazzy Maker Attelé
07/09/25 0 Trot 18 500€ 2 675m Le Mont Saint Michel Kool Danover Attelé
01/09/25 D Trot 26 000€ 2 825m Vire Geronimo Matica Attelé
17/08/25 3 Trot 16 000€ 3 150m Abbeville Krack Ter Blekte Attelé
14/08/25 8 Trot 37 000€ 2 875m Enghien Soisy Kiss Me Dutollem 1'15"0 Attelé
10/08/25 1 Trot 15 000€ 2 550m Bacqueville En Caux Indy Piquenard Attelé
06/08/25 3 Trot 19 000€ 2 850m Mauquenchy Koco Peel 1'17"1 Attelé